953  
ASUS43 KIWX 191110  
RWRIWX  
 
KIWX WEATHER ROUNDUP  
NATIONAL WEATHER SERVICE NORTHERN INDIANA  
700 AM EDT FRI AUG 19 2022  
 
NOTE: "FAIR" INDICATES FEW OR NO CLOUDS BELOW 12,000 FEET WITH NO  
SIGNIFICANT WEATHER AND/OR S TO VISIBILITY
.  
 
* THESE STATIONS ARE NOT UNDER NWS QUALITY CONTROL. THEY ALSO MAY NOT  
REPORT WEATHER SUCH AS PRECIPITATION OR FOG.
 
 
INZ001>027-191200-  
NORTHERN INDIANA  
 
CITY SKY/WX TMP DP RH WIND PRES REMARKS
 
GARY* PTCLDY 64 61 88 VRB5 29.99R  
VALPARAISO PTCLDY 63 57 81 S5 30.00S  
MICHIGAN CITY* CLOUDY 64 57 77 S3 30.00S  
LAPORTE* MOCLDY 60 60 100 CALM 30.01S  
KNOX* PTCLDY 55 54 94 CALM 30.00S  
SOUTH BEND CLOUDY 63 57 81 CALM 30.02R  
ELKHART* CLOUDY 64 59 85 CALM 30.02S  
GOSHEN CLOUDY 61 58 90 CALM 30.01S  
MONTICELLO* CLEAR 58 57 96 CALM 30.00S  
LOGANSPORT* CLEAR 54 54 100 CALM 30.02S  
ROCHESTER* CLEAR 63 59 88 CALM 30.01S  
PLYMOUTH* CLOUDY 63 57 82 CALM 30.01R  
AUBURN* CLEAR 55 55 100 CALM 30.03S  
FORT WAYNE PTCLDY 55 53 93 CALM 30.03S  
HUNTINGTON* CLEAR N/A N/A N/A CALM 30.02S  
PERU/GRISSOM CLEAR 59 55 87 CALM 30.01S  
 

 
INZ028>050-191200-  
CENTRAL INDIANA  
 
CITY SKY/WX TMP DP RH WIND PRES REMARKS
 
LAFAYETTE CLEAR 60 58 92 NE3 30.00R  
KOKOMO* CLEAR N/A N/A N/A SE5 30.03S  
MARION* CLEAR 56 56 100 SE3 30.03F  
MUNCIE* CLEAR 60 56 86 CALM 30.03S  
INDIANAPOLIS PTCLDY 64 60 87 SE5 30.01S  
 

 
MIZ043>046-050>051-056>058-064>065-071>073-077>080-191200-  
SOUTHWEST LOWER MICHIGAN  
 
CITY SKY/WX TMP DP RH WIND PRES REMARKS
 
BATTLE CREEK MOCLDY 63 57 81 S6 30.02R  
BENTON HARBOR N/A N/A N/A N/A MISG 29.99R  
COLDWATER* CLEAR 59 57 93 CALM 30.02S  
HILLSDALE* CLEAR 55 53 94 CALM 30.03S  
HOLLAND PTCLDY 62 56 80 S5 29.98S  
GRAND RAPIDS MOCLDY 60 57 89 S7 29.99S  
KALAMAZOO CLOUDY 66 59 78 S5 30.02R  
STURGIS* MOCLDY 61 58 92 CALM 30.01S  
THREE RIVERS* CLOUDY 62 58 84 CALM 30.02S FOG  
 

 
OHZ001>008-015>018-024>025-191200-  
NORTHWEST OHIO  
 
CITY SKY/WX TMP DP RH WIND PRES REMARKS
 
WAUSEON* FOG 55 55 100 CALM 30.02F VSB 1/4  
DEFIANCE CLEAR 59 57 93 CALM 30.02F  
FINDLAY CLEAR 62 58 86 CALM 30.03R  
OTTAWA* FAIR 55 46 71 CALM 30.05S  
TOLEDO EXPRESS CLEAR 61 58 90 CALM 30.03S  
VAN WERT* FAIR 55 54 94 CALM 30.03F  
LIMA CLEAR 61 57 87 S3 30.04R  
 

 
AND FOR LAKE MICHIGAN COASTAL AND OPEN LAKE BUOY OBSERVATIONS  
 
STATION/POSITION TEMP WIND PRES VSBY WAVE
 
AIR SEA DIR/SP/G HT/PER  
(F) (DEG/KT/KT) (MB) (MI) (FT/S)  
CALUMET HARBOR 67 200/ 5/ 7 1013.6  
MICHIGAN CITY 70 1014.1R  
BURNS HARBOR 68 CALM / 1 1015.9R  
SAINT JOSEPH 67 150/ 2/ 6 1016.3  
SOUTH LAKE BUOY 72 72 200/ 12/ 16 1014.0S 1/ 3  
MICHIGAN CITY 70 N/A  
 

 

 
 
 
CLICK HERE TO GO TO PREVIOUS BULLETINS.

The Nexlab IN Page
The Nexlab OH Page
The Nexlab MI Page Main Text Page